GSAT0202 (PRN E14)

Last updated on Fri Apr 12 2024 01:03:08 GMT+0100 (British Summer Time)

1 40129U 14050B 24101.97188510 -.00000069 00000+0 00000+0 0 9997 2 40129 49.7441 304.8374 1607183 149.4038 221.0381 1.85520074 65696
UTC large
Height (km)
Speed (km/s)
/
Latitude / Longitude
Inclination (degrees)
Orbital Period (minutes)
Azimuth
Elevation
Range (km)
Doppler Factor

Next 0 passes for location: London (51.5072 / 0.1276)

Sorry there are no passes over London.